Simultaneous Nadir Overpasses (SNOs) Predictions

Prediction of SNOs between METOP-C and LANDSAT-8 Satellite Orbit:

Table of predicted SNOs for the next 14.0 days since TLE Epoch: 12/28/2019
Index Date (METOP-C) Time (METOP-C) Lat,Lon (METOP-C) SZA (METOP-C ) Date (LANDSAT-8) Time (LANDSAT-8) Lat,Lon (LANDSAT-8) SZA (LANDSAT-8 ) Distance(km) Time Diff (sec)
1 12/29/2019 16:04:00 -81.08, 158.09 73.90 12/29/2019 16:04:39 -81.08, 157.98 73.90 1.81 39
2 12/29/2019 16:54:40 81.09, -34.31 106.13 12/29/2019 16:54:05 81.08, -34.33 106.11 0.64 35
3 01/01/2020 11:37:50 -81.06,-135.76 74.18 01/01/2020 11:38:54 -81.06,-135.79 74.16 0.56 64
4 01/01/2020 12:28:29 81.08, 32.14 105.89 01/01/2020 12:28:19 81.09, 32.23 105.90 1.85 10
5 01/04/2020 08:02:17 81.08, 98.58 105.59 01/04/2020 08:02:33 81.07, 98.41 105.58 3.07 16
6 01/04/2020 08:52:56 -81.10, -93.55 74.35 01/04/2020 08:51:59 -81.10, -93.57 74.38 0.42 57
7 01/07/2020 03:36:06 81.07, 165.02 105.24 01/07/2020 03:36:47 81.08, 164.92 105.24 1.80 41
8 01/07/2020 04:26:46 -81.08, -27.40 74.74 01/07/2020 04:26:14 -81.08, -27.40 74.76 0.48 32
9 01/09/2020 23:09:56 81.06,-128.90 104.78 01/09/2020 23:11:02 81.05,-128.95 104.80 0.81 66




NCC Satellite Simultaneous Nadir Overpasses (SNOs) Prediction Service
